Weather History for KPGA - March, 2013

Change the Weather History Date:

Wednesday, March 6, 2013

  Actual Average Record
Temperature  
Mean Temperature 53 °F -  
Max Temperature 69 °F 55 °F 73 °F (1986)
Min Temperature 37 °F 33 °F 20 °F (1971)
Degree Days  
Heating Degree Days 12    
Growing Degree Days 3 (Base 50)    
Moisture  
Dew Point 17 °F    
Average Humidity 25    
Maximum Humidity 44    
Minimum Humidity 9    
Precipitation  
Precipitation 0.00 in - - ()
Sea Level Pressure  
Sea Level Pressure 29.88 in    
Wind  
Wind Speed 2 mph (WSW)    
Max Wind Speed 12 mph    
Max Gust Speed -    
Visibility 10 miles    
Events      
Averages and records for this station are not official NWS values.
T = Trace of Precipitation, MM = Missing Value Source: NWS Daily Summary

Daily Weather History Graph

Daily Weather History Graph

Search for Another Location

Airport or City:

Trip Planner

Search our weather history database for the weather conditions in past years. The results will help you decide how hot, cold, wet, or windy it might be!

Date:

Astronomy

Mar. 06, 2013 Rise Set
Actual Time 6:49 AM MST 6:25 PM MST
Civil Twilight 6:23 AM MST 6:51 PM MST
Nautical Twilight 5:53 AM MST 7:21 PM MST
Astronomical Twilight 5:23 AM MST 7:51 PM MST
Moon 2:55 AM MST (3/6) 1:16 PM MST (3/6)
Length of Visible Light 12h 27m
Length of Day
11h 35m
Waning Crescent, 29% of the Moon is Illuminated
Mar 6
Waning Crescent
Mar 11
New
Mar 19
First Quarter
Mar 27
Full
Apr 2
Last Quarter

Hourly Weather History & Observations

Time (MST) Temp. Windchill Dew Point Humidity Pressure Visibility Wind Dir Wind Speed Gust Speed Precip Events Conditions
12:53 AM 44.1 °F 42.5 °F 16.0 °F 32% 29.98 in 10.0 mi SSW 3.5 mph - N/A   Clear
1:53 AM 41.0 °F - 17.1 °F 38% 29.97 in 10.0 mi Calm Calm - N/A   Clear
2:53 AM 39.9 °F - 17.1 °F 40% 29.95 in 10.0 mi Calm Calm - N/A   Clear
3:53 AM 37.9 °F - 17.1 °F 43% 29.95 in 10.0 mi Calm Calm - N/A   Clear
4:53 AM 39.0 °F - 17.1 °F 41% 29.95 in 10.0 mi Calm Calm - N/A   Clear
5:53 AM 37.0 °F - 17.1 °F 44% 29.96 in 10.0 mi Calm Calm - N/A   Clear
6:53 AM 37.9 °F - 17.1 °F 43% 29.98 in 10.0 mi Calm Calm - N/A   Clear
7:53 AM 42.1 °F 39.2 °F 17.1 °F 37% 29.99 in 10.0 mi West 4.6 mph - N/A   Clear
8:53 AM 45.0 °F - 17.1 °F 33% 30.01 in 10.0 mi Calm Calm - N/A   Clear
9:53 AM 48.9 °F - 18.0 °F 29% 29.98 in 10.0 mi Calm Calm - N/A   Clear
10:53 AM 51.1 °F - 18.0 °F 27% 29.97 in 10.0 mi Calm Calm - N/A   Clear
11:53 AM 55.0 °F - 19.0 °F 24% 29.94 in 10.0 mi Calm Calm - N/A   Clear
12:53 PM 57.9 °F - 21.9 °F 25% 29.89 in 10.0 mi NNE 8.1 mph - N/A   Clear
1:53 PM 63.0 °F - 21.9 °F 21% 29.84 in 10.0 mi North 8.1 mph - N/A   Clear
2:53 PM 66.0 °F - 21.9 °F 19% 29.81 in 10.0 mi Calm Calm - N/A   Clear
3:53 PM 68.0 °F - 21.0 °F 17% 29.78 in 10.0 mi NW 3.5 mph - N/A   Clear
4:53 PM 66.9 °F - 21.0 °F 17% 29.76 in 10.0 mi North 3.5 mph - N/A   Clear
5:53 PM 66.9 °F - 16.0 °F 14% 29.76 in 10.0 mi Calm Calm - N/A   Clear
6:53 PM 64.0 °F - 12.9 °F 14% 29.77 in 10.0 mi Variable 5.8 mph - N/A   Clear
7:53 PM 61.0 °F - 12.9 °F 15% 29.79 in 10.0 mi SW 4.6 mph - N/A   Clear
8:53 PM 60.1 °F - 12.0 °F 15% 29.79 in 10.0 mi WSW 5.8 mph - N/A   Clear
9:53 PM 55.9 °F - 12.9 °F 18% 29.80 in 10.0 mi South 8.1 mph - N/A   Clear
10:53 PM 55.9 °F - 14.0 °F 19% 29.81 in 10.0 mi SSW 11.5 mph - N/A   Clear
11:53 PM 54.0 °F - 14.0 °F 21% 29.81 in 10.0 mi South 6.9 mph - N/A   Clear